KC0SIQ-13 Weather Reports


time (UTC)temp
C
wind
direction
speed
KPH
gust
KPH
rain 1hr
cm
rain 24hr
cm
rain mn
cm
humidity
%
barometer
mb
20260505054123 8 7 3.2 8.0 0.00 0.10 0.10 78 1010.1
20260505053620 8 283 0.0 0.0 0.00 0.10 0.10 82 1009.8
20260505053116 10 336 3.2 3.2 0.00 0.10 0.10 93 1009.6
20260505052614 10 268 0.0 0.0 0.00 0.10 0.10 93 1009.6
20260505052111 9 272 0.0 0.0 0.00 0.10 0.10 93 1009.5
20260505051608 9 268 0.0 0.0 0.00 0.10 0.10 93 1009.5
20260505051106 9 271 0.0 0.0 0.00 0.10 0.10 93 1009.5
20260505050604 9 265 0.0 0.0 0.00 0.10 0.10 93 1009.1
20260505041532 9 268 0.0 0.0 0.00 0.10 0.10 94 1008.8
20260505041029 9 269 0.0 0.0 0.00 0.10 0.10 94 1008.8
20260505040526 9 262 0.0 0.0 0.00 0.10 0.10 94 1009.0
20260505040024 9 262 0.0 0.0 0.00 0.10 0.10 94 1008.9
20260505035519 9 262 0.0 0.0 0.00 0.10 0.10 93 1008.8
20260505035016 8 262 0.0 0.0 0.00 0.10 0.10 93 1008.9
20260505034513 8 265 0.0 0.0 0.00 0.10 0.10 93 1008.5
20260505034010 8 265 0.0 0.0 0.00 0.10 0.10 93 1008.8
20260505033507 8 265 0.0 0.0 0.00 0.10 0.10 92 1008.7
20260505033005 8 265 0.0 0.0 0.00 0.10 0.10 92 1008.8
20260505032502 9 270 0.0 0.0 0.00 0.10 0.10 92 1008.8
20260505031958 9 267 0.0 0.0 0.00 0.10 0.10 92 1008.4
20260505031455 9 267 0.0 0.0 0.00 0.10 0.10 92 1008.5
20260505030952 9 266 0.0 0.0 0.00 0.10 0.10 92 1008.3
20260505030448 9 266 0.0 0.0 0.00 0.10 0.10 91 1008.7
20260505025943 9 258 0.0 0.0 0.00 0.10 0.10 91 1008.2
20260505025441 9 258 0.0 0.0 0.00 0.10 0.10 91 1008.3
20260505024940 10 258 0.0 0.0 0.00 0.10 0.10 91 1008.1
20260505024437 9 264 0.0 0.0 0.00 0.10 0.10 90 1008.1
20260505023934 10 264 0.0 0.0 0.00 0.10 0.10 90 1008.2
20260505023431 10 264 0.0 0.0 0.00 0.10 0.10 89 1008.0
20260505022928 10 259 0.0 0.0 0.00 0.10 0.10 89 1007.7
20260505022426 10 266 0.0 0.0 0.00 0.10 0.10 89 1007.7
20260505021922 10 266 0.0 0.0 0.00 0.10 0.10 88 1007.6
20260505021419 10 266 0.0 0.0 0.00 0.10 0.10 87 1007.7
20260505020915 10 268 0.0 0.0 0.00 0.10 0.10 86 1007.7
20260505020410 10 261 0.0 0.0 0.00 0.10 0.10 86 1007.8
20260505015908 10 261 0.0 0.0 0.00 0.10 0.10 85 1007.7
20260505015405 10 254 0.0 0.0 0.00 0.10 0.10 85 1007.8
20260505014902 10 256 0.0 0.0 0.00 0.10 0.10 85 1008.0
20260505014358 10 256 0.0 0.0 0.00 0.10 0.10 87 1007.8
20260505013855 10 266 0.0 0.0 0.00 0.10 0.10 86 1008.0
20260505013352 10 266 0.0 0.0 0.00 0.10 0.10 86 1007.8
20260505012851 10 260 0.0 0.0 0.00 0.10 0.10 86 1008.1
20260505012349 10 262 0.0 0.0 0.00 0.10 0.10 87 1008.2
20260505011844 10 258 0.0 0.0 0.00 0.10 0.10 87 1008.0
20260505011341 10 268 0.0 0.0 0.00 0.10 0.10 86 1008.1
20260505010837 10 257 0.0 0.0 0.00 0.10 0.10 85 1008.0
20260505010333 10 287 0.0 0.0 0.00 0.10 0.10 84 1007.8
20260505005830 10 267 0.0 0.0 0.00 0.10 0.10 82 1007.8
20260505005326 10 260 0.0 0.0 0.00 0.10 0.10 82 1007.5
20260505004824 10 219 0.0 0.0 0.00 0.10 0.10 81 1007.8
20260505004320 10 178 0.0 1.6 0.00 0.10 0.10 80 1007.6
20260505003818 10 251 0.0 1.6 0.00 0.10 0.10 79 1007.6
20260505003315 10 284 3.2 4.8 0.00 0.10 0.10 79 1007.6
20260505002811 11 229 1.6 3.2 0.00 0.10 0.10 79 1007.6
20260505002308 11 254 0.0 0.0 0.18 0.10 0.10 78 1007.6
20260505001806 11 237 1.6 1.6 0.30 0.10 0.10 76 1007.7
20260505001303 12 246 3.2 4.8 0.00 0.05 0.05 70 1007.7
20260505000800 12 305 0.0 0.0 0.18 0.05 0.05 65 1007.7
20260505000258 13 241 1.6 1.6 0.30 0.05 0.05 61 1007.5
20260504235754 14 232 0.0 0.0 0.13 0.03 0.03 56 1007.6
20260504235250 15 238 0.0 0.0 0.00 0.00 0.00 49 1007.3
20260504234748 15 217 1.6 3.2 0.00 0.00 0.00 50 1006.9
20260504234245 15 219 3.2 3.2 0.00 0.00 0.00 48 1006.9
20260504233741 16 54 9.7 12.9 0.00 0.00 0.00 44 1006.9
20260504233237 16 247 0.0 1.6 0.00 0.00 0.00 42 1006.9
20260504232735 16 159 4.8 4.8 0.00 0.00 0.00 42 1006.7
20260504232231 16 260 1.6 1.6 0.00 0.00 0.00 42 1006.6
20260504231728 16 253 1.6 1.6 0.00 0.00 0.00 42 1006.6
20260504231224 16 238 1.6 1.6 0.00 0.00 0.00 42 1006.3
20260504230720 16 253 0.0 1.6 0.00 0.00 0.00 41 1006.3
20260504230220 17 317 1.6 3.2 0.00 0.00 0.00 41 1006.3
20260504225718 17 256 0.0 1.6 0.00 0.00 0.00 42 1006.1
20260504225213 17 227 0.0 1.6 0.00 0.00 0.00 41 1006.2
20260504224711 17 354 3.2 4.8 0.00 0.00 0.00 39 1005.9
20260504224208 17 283 1.6 1.6 0.00 0.00 0.00 41 1006.1
20260504223704 17 290 0.0 0.0 0.00 0.00 0.00 41 1005.9
20260504223200 16 278 0.0 1.6 0.00 0.00 0.00 41 1005.9
20260504222658 16 33 1.6 1.6 0.00 0.00 0.00 41 1005.9
20260504222154 16 259 1.6 1.6 0.00 0.00 0.00 41 1005.7
20260504221651 16 237 0.0 0.0 0.00 0.00 0.00 43 1005.9
20260504221148 17 332 4.8 4.8 0.00 0.00 0.00 41 1005.9
20260504220645 17 234 0.0 0.0 0.00 0.00 0.00 41 1006.1
20260504220143 17 65 1.6 3.2 0.00 0.00 0.00 41 1006.2
20260504215638 17 225 1.6 1.6 0.00 0.00 0.00 41 1006.1
20260504215136 17 263 0.0 0.0 0.00 0.00 0.00 43 1006.6
20260504214632 17 260 0.0 0.0 0.00 0.00 0.00 45 1006.6
20260504214128 16 265 0.0 1.6 0.00 0.00 0.00 44 1006.6
20260504213625 16 278 3.2 3.2 0.00 0.00 0.00 43 1006.9
20260504213122 16 140 0.0 1.6 0.00 0.00 0.00 47 1006.8
20260504212618 17 262 0.0 0.0 0.00 0.00 0.00 48 1006.7
20260504212115 16 271 3.2 3.2 0.00 0.00 0.00 50 1006.6
20260504211612 16 273 1.6 1.6 0.00 0.00 0.00 56 1006.7
20260504211109 15 232 1.6 1.6 0.00 0.00 0.00 53 1006.6
20260504210607 15 247 0.0 1.6 0.00 0.00 0.00 54 1006.8
20260504205601 15 274 3.2 3.2 0.00 0.00 0.00 52 1007.0
20260504205058 15 251 0.0 0.0 0.00 0.00 0.00 48 1007.7
20260504204556 15 317 1.6 1.6 0.00 0.00 0.00 44 1007.6
20260504204055 16 218 0.0 0.0 0.00 0.00 0.00 45 1008.0
20260504203552 16 242 1.6 1.6 0.00 0.00 0.00 46 1007.4
20260504203050 16 291 0.0 0.0 0.00 0.00 0.00 46 1007.6
20260504202545 16 263 0.0 0.0 0.00 0.00 0.00 46 1007.5
20260504202042 16 287 0.0 1.6 0.00 0.00 0.00 45 1007.6
20260504201539 16 316 3.2 3.2 0.00 0.00 0.00 46 1007.6
20260504201037 16 19 4.8 8.0 0.00 0.00 0.00 45 1007.6
20260504200533 16 283 1.6 1.6 0.00 0.00 0.00 47 1007.5
20260504200030 16 327 3.2 8.0 0.00 0.00 0.00 45 1007.5
20260504195526 15 314 0.0 0.0 0.00 0.00 0.00 51 1007.5
20260504195023 16 58 1.6 1.6 0.00 0.00 0.00 52 1007.4
20260504194519 16 12 1.6 3.2 0.00 0.00 0.00 46 1007.4
20260504194015 16 329 4.8 8.0 0.00 0.00 0.00 40 1007.3
20260504193512 17 113 4.8 8.0 0.00 0.00 0.00 37 1007.3
20260504193010 18 228 0.0 1.6 0.00 0.00 0.00 34 1006.9
20260504192508 18 165 4.8 4.8 0.00 0.00 0.00 33 1006.4
20260504192006 18 237 0.0 1.6 0.00 0.00 0.00 34 1006.3
20260504191504 19 261 0.0 0.0 0.00 0.00 0.00 35 1006.1
20260504190959 18 261 0.0 0.0 0.00 0.00 0.00 36 1006.1
20260504190455 19 276 1.6 1.6 0.00 0.00 0.00 34 1006.1
20260504185952 19 167 1.6 1.6 0.00 0.00 0.00 31 1006.0
20260504185449 20 255 1.6 1.6 0.00 0.00 0.00 28 1005.9
20260504184945 20 267 0.0 1.6 0.00 0.00 0.00 26 1005.9
20260504184441 21 268 0.0 0.0 0.00 0.00 0.00 25 1005.7
20260504183937 21 256 0.0 0.0 0.00 0.00 0.00 26 1005.6
20260504183434 21 17 1.6 1.6 0.00 0.00 0.00 25 1005.4
20260504182932 21 260 1.6 1.6 0.00 0.00 0.00 27 1005.5
20260504182429 21 249 3.2 3.2 0.00 0.00 0.00 27 1005.5
20260504181926 21 254 1.6 1.6 0.00 0.00 0.00 25 1005.7
20260504181423 21 241 1.6 1.6 0.00 0.00 0.00 24 1005.6
20260504180922 22 224 0.0 1.6 0.00 0.00 0.00 24 1005.7
20260504180420 22 280 0.0 1.6 0.00 0.00 0.00 24 1005.4
20260504175918 22 258 0.0 1.6 0.00 0.00 0.00 23 1005.4
20260504175415 22 165 0.0 1.6 0.00 0.00 0.00 23 1005.6
20260504174913 22 302 3.2 3.2 0.00 0.00 0.00 22 1005.4
20260504174410 23 294 1.6 3.2 0.00 0.00 0.00 22 1005.5
20260504173907 23 13 1.6 1.6 0.00 0.00 0.00 22 1005.7
20260504173403 22 80 1.6 1.6 0.00 0.00 0.00 22 1005.6
20260504172901 22 188 3.2 4.8 0.00 0.00 0.00 22 1005.6
20260504172357 22 275 4.8 4.8 0.00 0.00 0.00 22 1005.9
20260504171852 22 124 3.2 3.2 0.00 0.00 0.00 21 1005.7
20260504171350 22 235 4.8 9.7 0.00 0.00 0.00 23 1005.7
20260504170847 22 238 0.0 1.6 0.00 0.00 0.00 23 1005.9
20260504170344 22 195 1.6 3.2 0.00 0.00 0.00 24 1005.9
20260504160303 21 262 4.8 4.8 0.00 0.00 0.00 25 1006.1
20260504150728 16 191 0.0 0.0 0.00 0.00 0.00 45 1006.6
20260504150225 15 254 0.0 0.0 0.00 0.00 0.00 47 1006.3
20260504141154 11 271 0.0 0.0 0.00 0.00 0.00 55 1007.0
20260504140651 10 264 0.0 0.0 0.00 0.00 0.00 58 1006.8
20260504140146 10 255 0.0 0.0 0.00 0.00 0.00 58 1006.9
20260504130614 6 250 0.0 0.0 0.00 0.00 0.00 70 1006.9
20260504130111 5 259 0.0 0.0 0.00 0.00 0.00 75 1006.7
20260504110503 3 269 0.0 0.0 0.00 0.00 0.00 76 1007.0
20260504100424 3 269 0.0 0.0 0.00 0.00 0.00 73 1007.4
20260504081818 5 269 0.0 0.0 0.00 0.00 0.00 64 1008.3
20260504081314 6 268 0.0 0.0 0.00 0.00 0.00 63 1008.2
20260504080810 6 269 0.0 0.0 0.00 0.00 0.00 62 1008.3
20260504080307 6 268 0.0 0.0 0.00 0.00 0.00 62 1008.1
20260504070235 7 268 0.0 0.0 0.00 0.00 0.00 57 1008.8
20260504060155 9 268 0.0 0.0 0.00 0.00 0.00 49 1009.1